| time (UTC) | temp F | wind direction | speed knots | gust knots | rain 1hr in | rain 24hr in | rain mn in | humidity % | barometer mb |
| 20260508220042 | 75 | 338 | 7.0 | 17.4 | 0.00 | 0.00 | 0.00 | 22 | 1014.1 |
| 20260508213017 | 74 | 338 | 7.8 | 17.4 | 0.00 | 0.00 | 0.00 | 22 | 1014.3 |
| 20260508210057 | 75 | 338 | 7.0 | 16.5 | 0.00 | 0.00 | 0.00 | 23 | 1014.7 |
| 20260508203017 | 74 | 338 | 6.1 | 16.5 | 0.00 | 0.00 | 0.00 | 24 | 1015.5 |
| 20260508200017 | 74 | 338 | 6.1 | 16.5 | 0.00 | 0.00 | 0.00 | 23 | 1015.8 |
| 20260508193017 | 73 | 315 | 4.3 | 13.0 | 0.00 | 0.00 | 0.00 | 24 | 1015.9 |
| 20260508190017 | 72 | 338 | 4.3 | 13.0 | 0.00 | 0.00 | 0.00 | 27 | 1016.5 |
| 20260508183017 | 71 | 338 | 4.3 | 13.9 | 0.00 | 0.00 | 0.00 | 29 | 1016.7 |
| 20260508180017 | 69 | 338 | 0.9 | 9.6 | 0.00 | 0.00 | 0.00 | 31 | 1016.5 |
| 20260508173017 | 68 | 203 | 0.9 | 4.3 | 0.00 | 0.00 | 0.00 | 43 | 1017.0 |
| 20260508170017 | 67 | 203 | 0.9 | 4.3 | 0.00 | 0.00 | 0.00 | 45 | 1016.7 |
| 20260508163017 | 65 | 203 | 0.9 | 4.3 | 0.00 | 0.00 | 0.00 | 47 | 1016.4 |
| 20260508160016 | 64 | 0.0 | 2.6 | 0.00 | 0.00 | 0.00 | 49 | 1016.4 | |
| 20260508153016 | 61 | 0.0 | 0.9 | 0.00 | 0.00 | 0.00 | 51 | 1016.0 | |
| 20260508150018 | 58 | 0.0 | 0.0 | 0.00 | 0.00 | 0.00 | 58 | 1015.9 | |
| 20260508143017 | 53 | 0.0 | 0.9 | 0.00 | 0.00 | 0.00 | 60 | 1015.6 | |
| 20260508140017 | 52 | 0.0 | 1.7 | 0.00 | 0.00 | 0.00 | 62 | 1015.7 | |
| 20260508133016 | 52 | 0.0 | 1.7 | 0.00 | 0.00 | 0.00 | 66 | 1015.5 | |
| 20260508130057 | 52 | 0.0 | 1.7 | 0.00 | 0.00 | 0.00 | 61 | 1015.3 | |
| 20260508123016 | 53 | 0.0 | 1.7 | 0.00 | 0.00 | 0.00 | 60 | 1015.0 | |
| 20260508120017 | 54 | 68 | 0.9 | 2.6 | 0.00 | 0.00 | 0.00 | 54 | 1015.2 |
| 20260508113056 | 54 | 90 | 1.7 | 3.5 | 0.00 | 0.00 | 0.00 | 53 | 1015.2 |
| 20260508110016 | 54 | 113 | 0.9 | 3.5 | 0.00 | 0.00 | 0.00 | 55 | 1015.3 |
| 20260508103016 | 55 | 135 | 0.9 | 2.6 | 0.00 | 0.00 | 0.00 | 53 | 1015.3 |
| 20260508100016 | 55 | 90 | 0.9 | 2.6 | 0.00 | 0.00 | 0.00 | 49 | 1015.2 |
| 20260508093016 | 56 | 90 | 0.9 | 2.6 | 0.00 | 0.00 | 0.00 | 57 | 1015.3 |
| 20260508090056 | 58 | 135 | 0.9 | 2.6 | 0.00 | 0.00 | 0.00 | 48 | 1015.2 |
| 20260508083056 | 58 | 68 | 0.9 | 2.6 | 0.00 | 0.00 | 0.00 | 43 | 1014.8 |
| 20260508080016 | 58 | 90 | 0.9 | 3.5 | 0.00 | 0.00 | 0.00 | 43 | 1014.9 |
| 20260508073015 | 59 | 90 | 0.9 | 2.6 | 0.00 | 0.00 | 0.00 | 40 | 1014.9 |
| 20260508070016 | 61 | 68 | 1.7 | 4.3 | 0.00 | 0.00 | 0.00 | 39 | 1015.2 |
| 20260508063017 | 61 | 90 | 1.7 | 5.2 | 0.00 | 0.00 | 0.00 | 37 | 1014.6 |
| 20260508060017 | 62 | 68 | 1.7 | 2.6 | 0.00 | 0.00 | 0.00 | 36 | 1014.0 |
| 20260508053056 | 62 | 90 | 1.7 | 3.5 | 0.00 | 0.00 | 0.00 | 36 | 1013.6 |
| 20260508050017 | 62 | 68 | 0.9 | 3.5 | 0.00 | 0.00 | 0.00 | 36 | 1013.3 |
| 20260508043017 | 63 | 68 | 1.7 | 3.5 | 0.00 | 0.00 | 0.00 | 35 | 1013.2 |
| 20260508040016 | 63 | 68 | 0.9 | 3.5 | 0.00 | 0.00 | 0.00 | 35 | 1013.3 |
| 20260508033016 | 64 | 90 | 1.7 | 3.5 | 0.00 | 0.00 | 0.00 | 34 | 1012.8 |
| 20260508030016 | 67 | 23 | 0.9 | 3.5 | 0.00 | 0.00 | 0.00 | 33 | 1012.8 |
| 20260508023016 | 70 | 0.0 | 3.5 | 0.00 | 0.00 | 0.00 | 28 | 1012.9 | |
| 20260508020016 | 72 | 338 | 0.9 | 4.3 | 0.00 | 0.00 | 0.00 | 26 | 1012.9 |
| 20260508013016 | 72 | 0 | 0.9 | 5.2 | 0.00 | 0.00 | 0.00 | 25 | 1012.6 |
| 20260508010056 | 72 | 0 | 1.7 | 7.8 | 0.00 | 0.00 | 0.00 | 27 | 1013.4 |
| 20260508003016 | 72 | 338 | 2.6 | 7.8 | 0.00 | 0.00 | 0.00 | 25 | 1012.8 |
| 20260508000036 | 73 | 338 | 1.7 | 10.4 | 0.00 | 0.00 | 0.00 | 26 | 1013.4 |
| 20260507233015 | 75 | 338 | 1.7 | 8.7 | 0.00 | 0.00 | 0.00 | 24 | 1014.2 |
| 20260507230016 | 75 | 338 | 2.6 | 10.4 | 0.00 | 0.00 | 0.00 | 24 | 1014.6 |
| 20260507223016 | 75 | 338 | 1.7 | 9.6 | 0.00 | 0.00 | 0.00 | 26 | 1015.2 |